Weather History for Livingston, MT

Change the Weather History Date:

Friday, April 12, 2013

  Actual Average Record
Temperature  
Mean Temperature 42 °F 41 °F  
Max Temperature 53 °F 54 °F 74 °F (2003)
Min Temperature 33 °F 28 °F -1 °F (1997)
Degree Days  
Heating Degree Days 22 24  
Month to date heating degree days 301  
Since 1 July heating degree days 6560  
Cooling Degree Days 0 0  
Month to date cooling degree days 0  
Year to date cooling degree days 0  
Moisture  
Dew Point 18 °F    
Average Humidity 40    
Maximum Humidity 59    
Minimum Humidity 22    
Precipitation  
Precipitation 0.00 in 0.05 in 0.65 in (1998)
Month to date precipitation 0.59  
Year to date precipitation 2.42  
Sea Level Pressure  
Sea Level Pressure 29.90 in    
Wind  
Wind Speed 10 mph (WNW)    
Max Wind Speed 18 mph    
Max Gust Speed 24 mph    
Visibility 10 miles    
Events      
T = Trace of Precipitation, MM = Missing Value Source: NWS Daily Summary

Daily Weather History Graph

Daily Weather History Graph

Search for Another Location

Airport:

Trip Planner

Search our weather history database for the weather conditions in past years. The results will help you decide how hot, cold, wet, or windy it might be!

Date:

Astronomy

Apr. 12, 2013 Rise Set
Actual Time 6:40 AM MDT 8:04 PM MDT
Civil Twilight 6:10 AM MDT 8:35 PM MDT
Nautical Twilight 5:32 AM MDT 9:13 PM MDT
Astronomical Twilight 4:53 AM MDT 9:53 PM MDT
Moon 7:46 AM MDT (4/12) 10:46 PM MDT (4/12)
Length of Visible Light 14h 25m
Length of Day
13h 24m
Waxing Crescent, 5% of the Moon is Illuminated
Apr 12
Waxing Crescent
Apr 18
First Quarter
Apr 25
Full
May 2
Last Quarter
May 9
New

Hourly Weather History & Observations

Time (MDT) Temp. Windchill Dew Point Humidity Pressure Visibility Wind Dir Wind Speed Gust Speed Precip Events Conditions
12:53 AM 39.0 °F 31.0 °F 17.1 °F 41% 29.94 in 10.0 mi NW 13.8 mph 23.0 mph N/A   Overcast
1:29 AM 39.2 °F 32.5 °F 17.6 °F 42% 29.95 in 10.0 mi WSW 10.4 mph - N/A   Overcast
1:53 AM 37.0 °F 29.8 °F 18.0 °F 46% 29.95 in 10.0 mi NNW 10.4 mph - N/A   Overcast
2:53 AM 37.0 °F 29.8 °F 19.0 °F 48% 29.95 in 10.0 mi WNW 10.4 mph - N/A   Overcast
3:53 AM 36.0 °F 28.5 °F 19.0 °F 50% 29.96 in 10.0 mi WSW 10.4 mph - N/A   Overcast
4:53 AM 36.0 °F 30.3 °F 19.9 °F 52% 29.99 in 10.0 mi West 6.9 mph - N/A   Overcast
5:53 AM 35.1 °F 29.3 °F 19.0 °F 52% 30.00 in 10.0 mi WSW 6.9 mph - N/A   Overcast
6:53 AM 33.1 °F 26.1 °F 19.9 °F 59% 30.01 in 10.0 mi WSW 8.1 mph - N/A   Overcast
7:53 AM 35.1 °F 28.6 °F 21.0 °F 57% 30.03 in 10.0 mi West 8.1 mph - N/A   Mostly Cloudy
8:53 AM 39.0 °F 31.4 °F 19.9 °F 46% 30.04 in 10.0 mi WSW 12.7 mph - N/A   Overcast
9:53 AM 39.9 °F 35.8 °F 21.0 °F 47% 30.04 in 10.0 mi NW 5.8 mph - N/A   Overcast
10:53 AM 42.1 °F 36.6 °F 18.0 °F 38% 30.02 in 10.0 mi NNW 9.2 mph - N/A   Overcast
11:53 AM 46.0 °F 39.9 °F 15.1 °F 29% 30.01 in 10.0 mi West 13.8 mph 18.4 mph N/A   Overcast
12:53 PM 46.9 °F - 15.1 °F 28% 29.98 in 10.0 mi WNW 5.8 mph 18.4 mph N/A   Mostly Cloudy
1:53 PM 48.9 °F - 14.0 °F 25% 29.94 in 10.0 mi West 8.1 mph 21.9 mph N/A   Clear
2:53 PM 50.0 °F - 15.1 °F 25% 29.91 in 10.0 mi SSW 6.9 mph - N/A   Clear
3:53 PM 52.0 °F - 14.0 °F 22% 29.85 in 10.0 mi Variable 6.9 mph - N/A   Clear
4:53 PM 51.1 °F - 12.9 °F 22% 29.82 in 10.0 mi NW 8.1 mph - N/A   Mostly Cloudy
5:53 PM 51.1 °F - 12.9 °F 22% 29.80 in 10.0 mi North 4.6 mph - N/A   Scattered Clouds
6:53 PM 50.0 °F - 12.9 °F 23% 29.78 in 10.0 mi East 3.5 mph - N/A   Overcast
7:53 PM 46.9 °F - 21.0 °F 36% 29.76 in 10.0 mi ENE 9.2 mph - N/A   Overcast
8:53 PM 43.0 °F 36.8 °F 23.0 °F 45% 29.74 in 10.0 mi East 11.5 mph - N/A   Mostly Cloudy
9:53 PM 42.1 °F 35.7 °F 23.0 °F 47% 29.72 in 10.0 mi East 11.5 mph - N/A   Clear
10:53 PM 39.0 °F 29.6 °F 21.0 °F 49% 29.69 in 10.0 mi East 18.4 mph 24.2 mph N/A   Clear
11:53 PM 37.0 °F 27.7 °F 19.9 °F 50% 29.63 in 10.0 mi East 16.1 mph - N/A   Clear